Paynesville, MN

8:38 AM CST on November 20, 2017 (GMT -0600)
Paynesville

Weather History for KPEX - September, 2012

Change the Weather History Date:

Saturday, September 29, 2012

  Actual Average (KLJF) Record (KLJF)
Temperature  
Mean Temperature 62 °F -  
Max Temperature 83 °F 67 °F 83 °F (1983)
Min Temperature 40 °F 42 °F 29 °F (1974)
Degree Days  
Heating Degree Days 4    
Growing Degree Days 12 (Base 50)    
Moisture  
Dew Point 33 °F    
Average Humidity 40    
Maximum Humidity 75    
Minimum Humidity 15    
Precipitation  
Precipitation 0.00 in - - ()
Sea Level Pressure  
Sea Level Pressure 30.09 in    
Wind  
Wind Speed 3 mph (West)    
Max Wind Speed 7 mph    
Max Gust Speed -    
Visibility 9 miles    
Events      
Averages and records for this station are not official NWS values.
T = Trace of Precipitation, MM = Missing Value Source: NWS Daily Summary

Daily Weather History Graph

Daily Weather History Graph

Search for Another Location

Airport or City:

Trip Planner

Search our weather history database for the weather conditions in past years. The results will help you decide how hot, cold, wet, or windy it might be!

Date:

Astronomy

Sep. 29, 2012 Rise Set
Actual Time 7:15 AM CDT 7:02 PM CDT
Civil Twilight 6:45 AM CDT 7:31 PM CDT
Nautical Twilight 6:11 AM CDT 8:05 PM CDT
Astronomical Twilight 5:36 AM CDT 8:40 PM CDT
Moon 6:32 PM CDT (9/29) 6:48 AM CDT (9/29)
Length of Visible Light 12h 45m
Length of Day
11h 46m
Full, 100% of the Moon is Illuminated
Sep 29
Full
Sep 29
Full
Oct 8
Last Quarter
Oct 15
New
Oct 21
First Quarter

Hourly Weather History & Observations

Time (CDT) Temp. Dew Point Humidity Pressure Visibility Wind Dir Wind Speed Gust Speed Precip Events Conditions
12:14 AM 47.7 °F 31.8 °F 54% 30.11 in 10.0 mi West 4.6 mph - N/A   Clear
12:33 AM 47.7 °F 32.0 °F 55% 30.11 in 10.0 mi West 4.6 mph - N/A   Clear
12:53 AM 47.3 °F 31.6 °F 55% 30.11 in 7.0 mi WSW 3.5 mph - N/A   Clear
1:14 AM 47.3 °F 31.8 °F 55% 30.11 in 10.0 mi West 4.6 mph - N/A   Clear
1:34 AM 49.3 °F 32.2 °F 52% 30.11 in 10.0 mi West 5.8 mph - N/A   Clear
1:53 AM 51.1 °F 32.9 °F 50% 30.11 in 10.0 mi WSW 4.6 mph - N/A   Clear
2:13 AM 52.5 °F 32.5 °F 47% 30.11 in 10.0 mi WSW 4.6 mph - N/A   Clear
2:33 AM 50.2 °F 32.9 °F 52% 30.11 in 10.0 mi WSW 4.6 mph - N/A   Clear
2:54 AM 49.8 °F 33.1 °F 53% 30.11 in 10.0 mi WSW 4.6 mph - N/A   Clear
3:13 AM 48.6 °F 32.9 °F 55% 30.11 in 10.0 mi WSW 5.8 mph - N/A   Clear
3:34 AM 50.0 °F 33.4 °F 53% 30.11 in 10.0 mi WSW 5.8 mph - N/A   Clear
3:53 AM 48.2 °F 33.1 °F 56% 30.11 in 10.0 mi WSW 4.6 mph - N/A   Clear
4:13 AM 47.3 °F 33.1 °F 58% 30.11 in 10.0 mi WSW 4.6 mph - N/A   Clear
4:34 AM 47.5 °F 33.3 °F 58% 30.12 in 10.0 mi WSW 4.6 mph - N/A   Clear
4:54 AM 48.6 °F 33.8 °F 57% 30.12 in 10.0 mi Calm Calm - N/A   Clear
5:13 AM 47.5 °F 34.7 °F 61% 30.12 in 10.0 mi Calm Calm - N/A   Clear
5:34 AM 47.3 °F 34.0 °F 60% 30.12 in 10.0 mi Calm Calm - N/A   Clear
5:53 AM 45.1 °F 33.3 °F 63% 30.13 in 10.0 mi Calm Calm - N/A   Clear
6:14 AM 43.7 °F 34.7 °F 71% 30.13 in 10.0 mi Calm Calm - N/A   Clear
6:33 AM 42.4 °F 32.5 °F 68% 30.14 in 10.0 mi Calm Calm - N/A   Clear
6:53 AM 42.4 °F 34.9 °F 75% 30.14 in 10.0 mi Calm Calm - N/A   Clear
7:14 AM 40.8 °F 32.5 °F 72% 30.14 in 10.0 mi Calm Calm - N/A   Clear
7:33 AM 41.0 °F 32.4 °F 71% 30.14 in 5.0 mi Calm Calm - N/A   Haze
7:54 AM 42.4 °F 32.7 °F 68% 30.14 in 7.0 mi Calm Calm - N/A   Clear
8:13 AM 45.0 °F 34.7 °F 67% 30.14 in 10.0 mi Calm Calm - N/A   Clear
8:34 AM 48.9 °F 35.8 °F 61% 30.14 in 5.0 mi Calm Calm - N/A   Haze
8:53 AM 53.4 °F 36.7 °F 53% 30.14 in 10.0 mi West 3.5 mph - N/A   Clear
9:13 AM 57.0 °F 36.7 °F 47% 30.14 in 10.0 mi Calm Calm - N/A   Clear
9:34 AM 61.2 °F 36.9 °F 40% 30.14 in 10.0 mi Calm Calm - N/A   Clear
9:54 AM 65.3 °F 37.0 °F 35% 30.14 in 10.0 mi Calm Calm - N/A   Clear
10:13 AM 71.1 °F 34.5 °F 26% 30.14 in 10.0 mi NNE 3.5 mph - N/A   Clear
10:34 AM 73.0 °F 32.5 °F 23% 30.13 in 10.0 mi Calm Calm - N/A   Clear
10:54 AM 74.8 °F 32.0 °F 21% 30.13 in 10.0 mi North 4.6 mph - N/A   Clear
11:13 AM 75.6 °F 31.8 °F 20% 30.13 in 10.0 mi WNW 5.8 mph - N/A   Clear
11:33 AM 76.3 °F 32.0 °F 20% 30.13 in 10.0 mi NNW 3.5 mph - N/A   Clear
11:54 AM 78.3 °F 32.4 °F 19% 30.12 in 10.0 mi WNW 4.6 mph - N/A   Clear
12:13 PM 78.3 °F 31.6 °F 18% 30.11 in 10.0 mi NW 4.6 mph - N/A   Clear
12:33 PM 79.0 °F 30.9 °F 17% 30.11 in 10.0 mi Calm Calm - N/A   Clear
12:54 PM 79.3 °F 30.6 °F 17% 30.11 in 10.0 mi Calm Calm - N/A   Clear
1:13 PM 80.4 °F 30.6 °F 16% 30.10 in 10.0 mi NW 6.9 mph - N/A   Clear
1:33 PM 80.8 °F 30.9 °F 16% 30.09 in 10.0 mi West 4.6 mph - N/A   Clear
1:54 PM 81.3 °F 30.6 °F 16% 30.09 in 10.0 mi Calm Calm - N/A   Clear
2:14 PM 81.7 °F 30.7 °F 16% 30.08 in 7.0 mi WNW 6.9 mph - N/A   Clear
2:33 PM 81.9 °F 30.7 °F 16% 30.07 in 7.0 mi Calm Calm - N/A   Clear
2:54 PM 82.4 °F 30.7 °F 15% 30.06 in 7.0 mi NNE 4.6 mph - N/A   Clear
3:14 PM 81.7 °F 30.9 °F 16% 30.06 in 5.0 mi Calm Calm - N/A   Haze
3:34 PM 82.4 °F 30.9 °F 15% 30.05 in 7.0 mi West 3.5 mph - N/A   Clear
3:53 PM 83.1 °F 31.1 °F 15% 30.04 in 5.0 mi West 5.8 mph - N/A   Haze
4:13 PM 82.9 °F 31.1 °F 15% 30.03 in 7.0 mi WSW 5.8 mph - N/A   Clear
4:34 PM 82.8 °F 31.1 °F 15% 30.04 in 7.0 mi Calm Calm - N/A   Clear
4:53 PM 82.4 °F 31.1 °F 16% 30.03 in 4.0 mi Calm Calm - N/A   Haze
5:13 PM 82.0 °F 31.5 °F 16% 30.03 in 7.0 mi Calm Calm - N/A   Clear
5:34 PM 81.7 °F 31.6 °F 16% 30.03 in 5.0 mi Calm Calm - N/A   Haze
5:54 PM 81.5 °F 31.6 °F 16% 30.03 in 7.0 mi Calm Calm - N/A   Clear
6:13 PM 80.8 °F 32.0 °F 17% 30.02 in 5.0 mi Calm Calm - N/A   Haze
6:33 PM 78.1 °F 32.9 °F 19% 30.02 in 5.0 mi Calm Calm - N/A   Haze
6:53 PM 75.2 °F 33.4 °F 22% 30.02 in 7.0 mi Calm Calm - N/A   Clear
7:13 PM 72.1 °F 33.8 °F 24% 30.02 in 7.0 mi Calm Calm - N/A   Clear
7:34 PM 65.7 °F 33.3 °F 30% 30.02 in 10.0 mi Calm Calm - N/A   Clear
7:53 PM 63.5 °F 35.2 °F 35% 30.03 in 10.0 mi Calm Calm - N/A   Clear
8:14 PM 61.2 °F 36.5 °F 40% 30.03 in 10.0 mi Calm Calm - N/A   Clear
8:34 PM 57.4 °F 34.9 °F 43% 30.03 in 7.0 mi Calm Calm - N/A   Clear
9:13 PM 56.1 °F 35.6 °F 46% 30.04 in 7.0 mi Calm Calm - N/A   Clear
9:34 PM 53.8 °F 33.6 °F 46% 30.04 in 10.0 mi Calm Calm - N/A   Clear
9:54 PM 55.4 °F 39.2 °F 54% 30.05 in 10.0 mi Calm Calm - N/A   Clear
10:13 PM 54.1 °F 39.0 °F 57% 30.05 in 10.0 mi Calm Calm - N/A   Clear
10:33 PM 52.5 °F 39.4 °F 61% 30.05 in 10.0 mi Calm Calm - N/A   Clear
10:54 PM 53.4 °F 35.2 °F 50% 30.05 in 10.0 mi Calm Calm - N/A   Clear
11:13 PM 52.5 °F 35.1 °F 51% 30.04 in 10.0 mi Calm Calm - N/A   Clear
11:33 PM 50.4 °F 40.1 °F 68% 30.04 in 10.0 mi Calm Calm - N/A   Clear
11:54 PM 51.1 °F 38.5 °F 62% 30.04 in 10.0 mi Calm Calm - N/A   Clear